FENGYUN 1C DEB

Satellite information

Favourite Embed

Satellite Type and Status

DEBRISIN ORBIT

Key statistics

Satellite FENGYUN 1C DEB at a glance.

Uptime

9555

Days in orbit

Revolutions

≈ 14.1

Per day

Orbit

SSO

Sun Synchronous Orbit

Inclination

99.2

Latest

Satellite identification and parameters

Extended collection of information and parameters for FENGYUN 1C DEB.

Object identification

Identified? True

Debris? True

Object name: FENGYUN 1C DEB

International designator: 1999-025BST

Object number (NORAD): 31387

Object ID (CCSDS): 31387

Country: PEOPLES REPUBLIC OF CHINA (PRC)

Current information (Y/N): Y

RCS size: SMALL

Orbital parameters

Period: 101.888 minutes

Inclination: 99.192 deg

SMA: 7226.189 km

Apoapsis: 1022.508 km

Periapsis: 673.6 km

RAAN: 61.7936 deg

Eccentricy: 0.0241419

Argument of periapsis: 259.0251 deg

Mean anomaly: 98.3678 deg

Mean motion: 14.13314487 rev/day

Mean motion (dot): 0.0000028 rev/day2

B* drag term: 0.00013447 1/REarth

Two-line elements (TLE)

Creation date: July 6, 2025, 6:05 p.m.

Reference frame: TEME

Reference center: EARTH

Epoch: July 6, 2025, 2:46 p.m. UTC

TLE line 0: 0 FENGYUN 1C DEB

TLE line 1: 1 31387U 99025BST 25187.61566052 .00000280 00000-0 13447-3 0 9993

TLE line 2: 2 31387 99.1920 61.7936 0241419 259.0251 98.3678 14.13314487940494

Live tracking on map

Real-time ground track for satellite FENGYUN 1C DEB.

In-orbit conjunctions

A list of the most updated potential collisions computed for object FENGYUN 1C DEB.

Target Orbit TCA Probability of collision Miss distance Type
CZ-6A DEB LEO 2025-01-29 15:25:04 0.0004083162 591.0 (m) DEBRIS
COSMOS 626 LEO 2024-11-16 09:14:15 0.0001336827 720.0 (m) PAYLOAD
CZ-6A DEB LEO 2024-11-14 22:26:31 0.0008759902 270.0 (m) DEBRIS
OBJECT D LEO 2024-10-16 10:58:50 0.0006861248 186.0 (m) UNKNOWN
THOR AGENA D R/B SSO 2024-07-28 21:22:00 0.0002089309 265.0 (m) ROCKET BODY

Associated space launch

Chinese polar orbiting meteorological satellite

FENGYUN 1C DEB was lifted into orbit during the mission ‘Long March 4B | Feng Yun 1C’, on board a Long March 4B space rocket.

The launch took place on May 10, 1999, 1:33 a.m. from Launch Complex 7.

For more information about the launch, click the button.

Launch to space Long March 4B | Feng Yun 1C
Long March 4B | Feng Yun 1C

Agency: N/A

Status: Launch Successful

Launch date: May 10, 1999, 1:33 a.m. UTC

Rocket: Long March 4B

Launch pad: Launch Complex 7

Location: Taiyuan Satellite Launch Center, People's Republic of China

...

Latest news about this satellite

There are no fresh news available about this satellite. Check back as we update our databases every day.


Newsletter sign-up

Weekly statistics, charts and insights to help you stay on top of the space industry.